This is the latest recevied weather packets stored in our database for station/object K4KMJ. If no packets are shown the sender has not sent any weather packets the latest 10 day(s).
| Time | Temp. | Humidity | Pressure | Rain* | Wind** | Luminosity | Snow |
|---|---|---|---|---|---|---|---|
| 1788353311 | 28.89° C | 96% | 1018.2 hPa | 0 mm | - | 152 W/m² | - |
| 1788353007 | 28.89° C | 97% | 1018.2 hPa | 0 mm | - | 123 W/m² | - |
| 1788352707 | 28.89° C | 98% | 1018.4 hPa | 0 mm | - | 141 W/m² | - |
| 1788352403 | 28.89° C | 99% | 1018.1 hPa | 0 mm | - | 118 W/m² | - |
| 1788352102 | 28.33° C | 99% | 1018.1 hPa | 0 mm | - | 110 W/m² | - |
| 1788351798 | 27.78° C | 99% | 1018.1 hPa | 0 mm | - | 99 W/m² | - |
| 1788351497 | 27.78° C | 99% | 1018.1 hPa | 0 mm | - | 92 W/m² | - |
| 1788351192 | 27.78° C | 99% | 1017.9 hPa | 0 mm | - | 84 W/m² | - |
| 1788350888 | 26.67° C | 99% | 1018 hPa | 0 mm | - | 71 W/m² | - |
| 1788350585 | 26.11° C | 99% | 1017.8 hPa | 0 mm | - | 63 W/m² | - |
| 1788350285 | 25.56° C | 99% | 1017.6 hPa | 0 mm | - | 54 W/m² | - |
| 1788349981 | 25.56° C | 99% | 1017.9 hPa | 0 mm | - | 25 W/m² | - |
| 1788349677 | 26.11° C | 99% | 1017.7 hPa | 0 mm | - | 41 W/m² | - |
| 1788349373 | 25.56° C | 99% | 1017.8 hPa | 0 mm | - | 35 W/m² | - |
| 1788349067 | 25° C | 99% | 1017.8 hPa | 0 mm | - | 19 W/m² | - |
| 1788348763 | 25° C | 99% | 1017.6 hPa | 0 mm | - | 13 W/m² | - |
| 1788348462 | 25° C | 99% | 1017.8 hPa | 0 mm | - | 10 W/m² | - |
| 1788348159 | 25° C | 99% | 1017.7 hPa | 0 mm | - | 7 W/m² | - |
| 1788347854 | 25° C | 99% | 1017.7 hPa | 0.51 mm | - | 6 W/m² | - |
| 1788347566 | 25° C | 99% | 1017.8 hPa | 0.51 mm | - | 3 W/m² | - |
| 1788347246 | 25° C | 99% | 1017.8 hPa | 0 mm | - | 2 W/m² | - |
| 1788346942 | 25° C | 99% | 1017.7 hPa | 0 mm | - | 1 W/m² | - |
| 1788346636 | 25° C | 99% | 1017.4 hPa | 0 mm | - | 1 W/m² | - |
| 1788346331 | 25° C | 99% | 1017.5 hPa | 0 mm | - | 0 W/m² | - |
| 1788346028 | 25° C | 99% | 1017.4 hPa | 0 mm | - | 0 W/m² | - |
* Rain latest hour (hover to see other rain measurements)
** Current wind speed in m/s (hover to see current wind gust speed)